Location: Armidale
(30.5016°S, 151.6662°E)
Time: 03:27:04
(UTC+10:00)

Hubble Space Telescope - Visible Passes

Search period start: 15 May 2021 00:00
Search period end: 25 May 2021 00:00
Orbit: 535 x 539 km, 28.5° (Epoch: 14 May)

Date Brightness Start Highest point End Pass type
(mag) Time Alt. Az. Time Alt. Az. Time Alt. Az.
15 May 2.1 18:28:47 10° NW 18:32:20 27° NNE 18:33:17 25° NE visible
16 May 1.9 18:17:37 10° NW 18:21:21 33° NNE 18:23:01 24° ENE visible
16 May 4.1 19:58:11 10° WNW 19:58:20 11° WNW 19:58:20 11° WNW visible
17 May 1.7 18:06:30 10° NW 18:10:23 38° NNE 18:12:44 20° ENE visible
17 May 3.7 19:47:15 10° W 19:48:02 15° WNW 19:48:02 15° WNW visible
18 May 1.5 17:55:27 10° WNW 17:59:25 45° NNE 18:02:25 16° E visible
18 May 3.3 19:36:19 10° W 19:37:44 20° WNW 19:37:44 20° WNW visible
19 May 1.3 17:44:26 10° WNW 17:48:28 51° N 17:52:07 12° E visible
19 May 2.8 19:25:23 10° W 19:27:26 27° WNW 19:27:26 27° WNW visible
20 May 1.2 17:33:26 10° WNW 17:37:32 57° N 17:41:37 10° E visible
20 May 2.2 19:14:28 10° W 19:17:08 37° WNW 19:17:08 37° WNW visible
21 May 1.2 17:22:29 10° WNW 17:26:35 61° N 17:30:42 10° E visible
21 May 1.6 19:03:33 10° W 19:06:52 49° NW 19:06:52 49° NW visible
22 May 1.2 18:52:38 10° W 18:56:39 55° NNW 18:56:39 55° NNW visible
23 May 1.4 18:41:44 10° W 18:45:46 49° NNW 18:46:29 43° NNE visible
24 May 1.7 18:30:51 10° W 18:34:49 43° NNW 18:36:25 29° NE visible
